Weather History for KBHB - July, 2013

Change the Weather History Date:

Thursday, July 18, 2013

  Actual Average Record
Temperature  
Mean Temperature 75 °F -  
Max Temperature 84 °F 81 °F 92 °F (1953)
Min Temperature 66 °F 60 °F 52 °F (1957)
Cooling Degree Days 10    
Growing Degree Days 25 (Base 50)    
Moisture  
Dew Point 64 °F    
Average Humidity 75    
Maximum Humidity 100    
Minimum Humidity 42    
Precipitation  
Precipitation 0.00 in - - ()
Sea Level Pressure  
Sea Level Pressure 29.96 in    
Wind  
Wind Speed 5 mph (SW)    
Max Wind Speed 14 mph    
Max Gust Speed 21 mph    
Visibility 8 miles    
Events      
Averages and records for this station are not official NWS values.
T = Trace of Precipitation, MM = Missing Value Source: NWS Daily Summary

Daily Weather History Graph

Daily Weather History Graph

Search for Another Location

Airport or City:

Trip Planner

Search our weather history database for the weather conditions in past years. The results will help you decide how hot, cold, wet, or windy it might be!

Date:

Astronomy

Jul. 18, 2013 Rise Set
Actual Time 5:05 AM EDT 8:12 PM EDT
Civil Twilight 4:30 AM EDT 8:47 PM EDT
Nautical Twilight 3:45 AM EDT 9:32 PM EDT
Astronomical Twilight 2:51 AM EDT 10:26 PM EDT
Moon 4:04 PM EDT (7/18) 12:56 AM EDT (7/18)
Length of Visible Light 16h 16m
Length of Day
15h 06m
Waxing Gibbous, 77% of the Moon is Illuminated
Jul 18
Waxing Gibbous
Jul 22
Full
Jul 29
Last Quarter
Aug 6
New
Aug 14
First Quarter

Hourly Weather History & Observations

Time (EDT) Temp. Heat Index Dew Point Humidity Pressure Visibility Wind Dir Wind Speed Gust Speed Precip Events Conditions
12:15 AM 66.2 °F - 66.2 °F 100% 29.94 in 5.0 mi SW 3.5 mph - N/A   Mostly Cloudy
12:35 AM 66.2 °F - 66.2 °F 100% 29.92 in 5.0 mi South 4.6 mph - N/A   Overcast
12:55 AM 68.0 °F - 68.0 °F 100% 29.92 in 4.0 mi SSW 4.6 mph - N/A   Mostly Cloudy
1:15 AM 68.0 °F - 68.0 °F 100% 29.92 in 5.0 mi SSW 4.6 mph - N/A   Scattered Clouds
1:35 AM 68.0 °F - 68.0 °F 100% 29.91 in 5.0 mi Calm Calm - N/A   Mostly Cloudy
1:55 AM 68.0 °F - 68.0 °F 100% 29.91 in 5.0 mi SSW 3.5 mph - N/A   Overcast
2:15 AM 68.0 °F - 68.0 °F 100% 29.92 in 6.0 mi Calm Calm - N/A   Mostly Cloudy
2:35 AM 69.8 °F - 69.8 °F 100% 29.91 in 7.0 mi Calm Calm - N/A   Partly Cloudy
2:55 AM 68.0 °F - 68.0 °F 100% 29.91 in 0.8 mi Calm Calm - N/A   Mostly Cloudy
3:15 AM 68.0 °F - 66.2 °F 94% 29.90 in 5.0 mi Calm Calm - N/A   Partly Cloudy
3:35 AM 69.8 °F - 69.8 °F 100% 29.90 in 10.0 mi Calm Calm - N/A   Clear
3:55 AM 69.8 °F - 69.8 °F 100% 29.91 in 9.0 mi Calm Calm - N/A   Clear
4:15 AM 69.8 °F - 69.8 °F 100% 29.91 in 10.0 mi Calm Calm - N/A   Clear
4:35 AM 66.2 °F - 66.2 °F 100% 29.92 in 1.0 mi Calm Calm - N/A   Mostly Cloudy
4:55 AM 66.2 °F - 66.2 °F 100% 29.93 in 0.5 mi Calm Calm - N/A   Mostly Cloudy
5:15 AM 66.2 °F - 66.2 °F 100% 29.94 in 0.2 mi South 3.5 mph - N/A   Overcast
5:35 AM 66.2 °F - 66.2 °F 100% 29.94 in 0.2 mi Calm Calm - N/A   Overcast
5:55 AM 66.2 °F - 66.2 °F 100% 29.95 in 0.2 mi Calm Calm - N/A   Overcast
6:15 AM 66.2 °F - 66.2 °F 100% 29.96 in 3.0 mi Calm Calm - N/A   Partly Cloudy
6:35 AM 69.8 °F - 68.0 °F 94% 29.96 in 10.0 mi Calm Calm - N/A   Clear
6:55 AM 69.8 °F - 69.8 °F 100% 29.96 in 10.0 mi NNW 4.6 mph - N/A   Clear
7:15 AM 71.6 °F - 69.8 °F 94% 29.97 in 10.0 mi NNW 6.9 mph - N/A   Clear
7:35 AM 71.6 °F - 69.8 °F 94% 29.97 in 10.0 mi NNW 6.9 mph - N/A   Clear
7:55 AM 73.4 °F - 69.8 °F 88% 29.98 in 10.0 mi North 9.2 mph - N/A   Clear
8:15 AM 73.4 °F - 69.8 °F 88% 29.98 in 10.0 mi NNW 6.9 mph - N/A   Clear
8:35 AM 75.2 °F - 68.0 °F 78% 29.98 in 10.0 mi North 11.5 mph 17.3 mph N/A   Clear
8:55 AM 75.2 °F - 68.0 °F 78% 29.99 in 10.0 mi North 8.1 mph 18.4 mph N/A   Clear
9:15 AM 75.2 °F - 66.2 °F 73% 29.99 in 10.0 mi NNE 9.2 mph - N/A   Clear
9:35 AM 77.0 °F - 66.2 °F 69% 29.99 in 10.0 mi North 9.2 mph - N/A   Clear
9:55 AM 78.8 °F - 64.4 °F 61% 29.99 in 10.0 mi North 10.4 mph - N/A   Clear
10:15 AM 78.8 °F - 64.4 °F 61% 29.99 in 10.0 mi North 5.8 mph - N/A   Clear
10:35 AM 80.6 °F 81.8 °F 62.6 °F 54% 29.99 in 10.0 mi NNE 9.2 mph - N/A   Clear
10:55 AM 80.6 °F 81.1 °F 59.0 °F 48% 29.99 in 10.0 mi North 8.1 mph - N/A   Clear
11:15 AM 80.6 °F 81.1 °F 59.0 °F 48% 29.99 in 10.0 mi NNE 4.6 mph - N/A   Clear
11:35 AM 80.6 °F 81.1 °F 59.0 °F 48% 29.98 in 10.0 mi NNE 4.6 mph - N/A   Clear
11:55 AM 82.4 °F 82.0 °F 57.2 °F 42% 29.98 in 10.0 mi North 3.5 mph - N/A   Clear
12:15 PM 82.4 °F 82.0 °F 57.2 °F 42% 29.98 in 10.0 mi North 5.8 mph - N/A   Clear
12:35 PM 82.4 °F 82.0 °F 57.2 °F 42% 29.98 in 10.0 mi NE 3.5 mph - N/A   Clear
12:55 PM 82.4 °F 82.5 °F 59.0 °F 45% 29.98 in 10.0 mi South 4.6 mph - N/A   Clear
1:15 PM 82.4 °F 82.5 °F 59.0 °F 45% 29.98 in 10.0 mi South 5.8 mph - N/A   Clear
1:35 PM 82.4 °F 82.9 °F 60.8 °F 48% 29.98 in 10.0 mi South 8.1 mph - N/A   Clear
1:55 PM 82.4 °F 82.9 °F 60.8 °F 48% 29.98 in 10.0 mi South 9.2 mph - N/A   Clear
2:15 PM 82.4 °F 82.9 °F 60.8 °F 48% 29.98 in 10.0 mi South 6.9 mph - N/A   Clear
2:35 PM 84.2 °F 85.0 °F 62.6 °F 48% 29.97 in 10.0 mi WNW 3.5 mph - N/A   Clear
2:55 PM 84.2 °F 84.4 °F 60.8 °F 45% 29.97 in 10.0 mi West 4.6 mph - N/A   Clear
3:15 PM 82.4 °F 83.4 °F 62.6 °F 51% 29.97 in 10.0 mi SSW 12.7 mph - N/A   Clear
3:35 PM 82.4 °F 83.4 °F 62.6 °F 51% 29.97 in 10.0 mi SSW 10.4 mph - N/A   Clear
3:55 PM 82.4 °F 83.9 °F 64.4 °F 54% 29.96 in 10.0 mi SSW 10.4 mph - N/A   Clear
4:15 PM 82.4 °F 83.9 °F 64.4 °F 54% 29.96 in 10.0 mi SSW 9.2 mph - N/A   Clear
4:35 PM 80.6 °F 81.8 °F 62.6 °F 54% 29.96 in 10.0 mi SSW 11.5 mph - N/A   Clear
4:55 PM 78.8 °F - 62.6 °F 57% 29.95 in 10.0 mi SSW 10.4 mph - N/A   Clear
5:15 PM 78.8 °F - 66.2 °F 65% 29.95 in 10.0 mi SSW 13.8 mph - N/A   Clear
5:35 PM 77.0 °F - 62.6 °F 61% 29.95 in 10.0 mi SSW 13.8 mph - N/A   Clear
5:55 PM 75.2 °F - 60.8 °F 61% 29.95 in 10.0 mi SSW 12.7 mph 20.7 mph N/A   Clear
6:15 PM 75.2 °F - 62.6 °F 65% 29.97 in 10.0 mi SW 11.5 mph - N/A   Clear
6:35 PM 73.4 °F - 62.6 °F 69% 29.97 in 10.0 mi SSW 8.1 mph - N/A   Clear
6:55 PM 73.4 °F - 60.8 °F 65% 29.96 in 10.0 mi SSW 12.7 mph - N/A   Clear
7:15 PM 73.4 °F - 60.8 °F 65% 29.96 in 10.0 mi SSW 12.7 mph - N/A   Clear
7:35 PM 73.4 °F - 60.8 °F 65% 29.97 in 10.0 mi SSW 10.4 mph - N/A   Clear
7:55 PM 73.4 °F - 57.2 °F 57% 29.98 in 10.0 mi SW 9.2 mph - N/A   Clear
8:15 PM 71.6 °F - 60.8 °F 69% 29.98 in 10.0 mi SSW 9.2 mph - N/A   Mostly Cloudy
8:35 PM 71.6 °F - 60.8 °F 69% 29.98 in 10.0 mi SSW 8.1 mph - N/A   Overcast
8:55 PM 71.6 °F - 60.8 °F 69% 29.99 in 10.0 mi SSW 9.2 mph - N/A   Mostly Cloudy
9:15 PM 69.8 °F - 60.8 °F 73% 29.99 in 10.0 mi SSW 8.1 mph - N/A   Mostly Cloudy
9:35 PM 69.8 °F - 62.6 °F 78% 29.99 in 10.0 mi SSW 6.9 mph - N/A   Scattered Clouds
9:55 PM 69.8 °F - 62.6 °F 78% 29.99 in 10.0 mi Calm Calm - N/A   Partly Cloudy
10:15 PM 69.8 °F - 62.6 °F 78% 29.98 in 10.0 mi SSW 9.2 mph - N/A   Scattered Clouds
10:35 PM 69.8 °F - 64.4 °F 83% 29.99 in 10.0 mi SSW 3.5 mph - N/A   Clear
10:55 PM 69.8 °F - 64.4 °F 83% 29.98 in 10.0 mi SSW 4.6 mph - N/A   Partly Cloudy
11:15 PM 69.8 °F - 64.4 °F 83% 29.99 in 10.0 mi SSW 4.6 mph - N/A   Mostly Cloudy
11:35 PM 68.0 °F - 66.2 °F 94% 29.98 in 10.0 mi SSW 5.8 mph - N/A   Overcast
11:55 PM 68.0 °F - 66.2 °F 94% 29.96 in 10.0 mi SSW 11.5 mph - N/A   Mostly Cloudy